| time (UTC) | temp F | wind direction | speed knots | gust knots | rain 1hr in | rain 24hr in | rain mn in | humidity % | barometer mb |
| 20260506202127 | 44 | 2 | 3.5 | 4.3 | 0.07 | 0.77 | 0.77 | 98 | 1006.9 |
| 20260506201625 | 44 | 309 | 1.7 | 1.7 | 0.05 | 0.76 | 0.76 | 98 | 1007.0 |
| 20260506201121 | 44 | 323 | 1.7 | 1.7 | 0.05 | 0.76 | 0.76 | 98 | 1006.7 |
| 20260506200617 | 44 | 338 | 0.9 | 0.9 | 0.00 | 0.75 | 0.75 | 98 | 1006.8 |
| 20260506200114 | 44 | 315 | 0.9 | 1.7 | 0.07 | 0.75 | 0.75 | 98 | 1006.7 |
| 20260506195611 | 44 | 347 | 0.9 | 0.9 | 0.07 | 0.75 | 0.75 | 98 | 1006.8 |
| 20260506195107 | 44 | 6 | 0.9 | 1.7 | 0.00 | 0.74 | 0.74 | 98 | 1007.0 |
| 20260506194605 | 44 | 306 | 1.7 | 1.7 | 0.00 | 0.74 | 0.74 | 98 | 1006.7 |
| 20260506194101 | 45 | 301 | 2.6 | 2.6 | 0.00 | 0.74 | 0.74 | 98 | 1006.6 |
| 20260506193559 | 45 | 301 | 1.7 | 1.7 | 0.00 | 0.74 | 0.74 | 98 | 1006.5 |
| 20260506193056 | 45 | 344 | 1.7 | 1.7 | 0.00 | 0.74 | 0.74 | 98 | 1006.7 |
| 20260506192553 | 44 | 353 | 2.6 | 2.6 | 0.00 | 0.74 | 0.74 | 98 | 1006.6 |
| 20260506192049 | 44 | 321 | 0.9 | 0.9 | 0.00 | 0.74 | 0.74 | 98 | 1006.4 |
| 20260506191545 | 45 | 322 | 0.9 | 0.9 | 0.05 | 0.74 | 0.74 | 98 | 1006.4 |
| 20260506191041 | 45 | 8 | 1.7 | 1.7 | 0.05 | 0.74 | 0.74 | 98 | 1006.6 |
| 20260506190539 | 44 | 346 | 1.7 | 1.7 | 0.00 | 0.73 | 0.73 | 98 | 1006.2 |
| 20260506190036 | 44 | 322 | 0.9 | 1.7 | 0.00 | 0.73 | 0.73 | 98 | 1006.3 |
| 20260506185533 | 44 | 336 | 0.9 | 1.7 | 0.00 | 0.73 | 0.73 | 98 | 1006.7 |
| 20260506185029 | 44 | 342 | 0.9 | 0.9 | 0.07 | 0.73 | 0.73 | 98 | 1006.7 |
| 20260506184527 | 44 | 322 | 1.7 | 1.7 | 0.07 | 0.73 | 0.73 | 98 | 1006.8 |
| 20260506184024 | 44 | 20 | 0.9 | 0.9 | 0.00 | 0.72 | 0.72 | 98 | 1006.4 |
| 20260506183520 | 44 | 331 | 0.9 | 0.9 | 0.00 | 0.72 | 0.72 | 98 | 1006.8 |
| 20260506183017 | 44 | 332 | 1.7 | 1.7 | 0.00 | 0.72 | 0.72 | 98 | 1006.9 |
| 20260506182514 | 44 | 307 | 0.9 | 0.9 | 0.00 | 0.72 | 0.72 | 98 | 1007.1 |
| 20260506182011 | 44 | 317 | 0.9 | 1.7 | 0.05 | 0.72 | 0.72 | 98 | 1007.1 |
| 20260506181509 | 44 | 318 | 0.0 | 0.9 | 0.05 | 0.72 | 0.72 | 98 | 1007.1 |
| 20260506181006 | 44 | 319 | 0.9 | 0.9 | 0.00 | 0.71 | 0.71 | 98 | 1007.3 |
| 20260506180502 | 44 | 357 | 2.6 | 2.6 | 0.07 | 0.71 | 0.71 | 98 | 1007.4 |
| 20260506175959 | 44 | 326 | 0.0 | 0.9 | 0.07 | 0.71 | 0.71 | 98 | 1007.2 |
| 20260506175455 | 44 | 10 | 2.6 | 2.6 | 0.07 | 0.70 | 0.70 | 98 | 1007.3 |
| 20260506174952 | 44 | 329 | 0.9 | 0.9 | 0.07 | 0.70 | 0.70 | 98 | 1007.4 |
| 20260506174450 | 44 | 346 | 1.7 | 2.6 | 0.00 | 0.69 | 0.69 | 98 | 1007.3 |
| 20260506173946 | 44 | 343 | 1.7 | 1.7 | 0.00 | 0.69 | 0.69 | 98 | 1007.4 |
| 20260506173444 | 44 | 345 | 3.5 | 4.3 | 0.00 | 0.69 | 0.69 | 98 | 1007.6 |
| 20260506172940 | 44 | 321 | 0.0 | 0.9 | 0.05 | 0.69 | 0.69 | 98 | 1007.4 |
| 20260506172438 | 44 | 14 | 0.9 | 1.7 | 0.12 | 0.69 | 0.69 | 98 | 1007.6 |
| 20260506171934 | 43 | 313 | 0.9 | 0.9 | 0.12 | 0.68 | 0.68 | 98 | 1007.5 |
| 20260506171432 | 43 | 356 | 0.9 | 1.7 | 0.05 | 0.67 | 0.67 | 98 | 1007.4 |
| 20260506170929 | 43 | 330 | 0.9 | 0.9 | 0.00 | 0.66 | 0.66 | 98 | 1007.3 |
| 20260506170425 | 43 | 26 | 3.5 | 4.3 | 0.07 | 0.66 | 0.66 | 98 | 1007.2 |
| 20260506165919 | 43 | 9 | 2.6 | 4.3 | 0.07 | 0.66 | 0.66 | 98 | 1007.3 |
| 20260506165417 | 43 | 319 | 0.9 | 1.7 | 0.00 | 0.65 | 0.65 | 98 | 1007.6 |
| 20260506164912 | 43 | 17 | 2.6 | 4.3 | 0.05 | 0.65 | 0.65 | 98 | 1007.6 |
| 20260506164409 | 43 | 353 | 3.5 | 4.3 | 0.05 | 0.65 | 0.65 | 98 | 1007.6 |
| 20260506163908 | 43 | 329 | 1.7 | 1.7 | 0.07 | 0.64 | 0.64 | 98 | 1007.6 |
| 20260506163401 | 43 | 325 | 2.6 | 4.3 | 0.12 | 0.64 | 0.64 | 98 | 1007.7 |
| 20260506162856 | 43 | 319 | 1.7 | 1.7 | 0.05 | 0.63 | 0.63 | 98 | 1007.7 |
| 20260506162355 | 43 | 332 | 0.9 | 1.7 | 0.07 | 0.62 | 0.62 | 98 | 1007.6 |
| 20260506161852 | 43 | 307 | 1.7 | 1.7 | 0.12 | 0.62 | 0.62 | 98 | 1007.8 |
| 20260506161350 | 43 | 327 | 0.9 | 0.9 | 0.17 | 0.61 | 0.61 | 98 | 1008.0 |
| 20260506160847 | 43 | 311 | 0.9 | 0.9 | 0.19 | 0.60 | 0.60 | 98 | 1008.1 |
| 20260506160344 | 43 | 4 | 2.6 | 2.6 | 0.19 | 0.59 | 0.59 | 98 | 1008.1 |
| 20260506155842 | 43 | 337 | 0.9 | 0.9 | 0.19 | 0.57 | 0.57 | 98 | 1007.9 |
| 20260506155338 | 43 | 321 | 1.7 | 1.7 | 0.17 | 0.56 | 0.56 | 98 | 1008.0 |
| 20260506153456 | 43 | 298 | 1.7 | 1.7 | 0.17 | 0.50 | 0.50 | 98 | 1008.1 |
| 20260506152954 | 44 | 291 | 1.7 | 1.7 | 0.19 | 0.49 | 0.49 | 98 | 1008.2 |
| 20260506152450 | 44 | 325 | 1.7 | 1.7 | 0.14 | 0.47 | 0.47 | 98 | 1008.2 |
| 20260506151949 | 44 | 298 | 0.9 | 0.9 | 0.12 | 0.46 | 0.46 | 97 | 1008.4 |
| 20260506151446 | 44 | 307 | 1.7 | 1.7 | 0.05 | 0.45 | 0.45 | 97 | 1007.8 |
| 20260506150943 | 44 | 292 | 2.6 | 4.3 | 0.07 | 0.44 | 0.44 | 97 | 1008.1 |
| 20260506150439 | 44 | 319 | 2.6 | 4.3 | 0.12 | 0.44 | 0.44 | 97 | 1007.9 |
| 20260506145936 | 43 | 352 | 2.6 | 2.6 | 0.12 | 0.43 | 0.43 | 97 | 1007.8 |
| 20260506145432 | 44 | 317 | 2.6 | 4.3 | 0.12 | 0.42 | 0.42 | 97 | 1007.9 |
| 20260506144930 | 44 | 345 | 1.7 | 2.6 | 0.05 | 0.41 | 0.41 | 97 | 1007.8 |
| 20260506144427 | 44 | 317 | 0.9 | 0.9 | 0.07 | 0.40 | 0.40 | 97 | 1007.9 |
| 20260506143925 | 44 | 4 | 2.6 | 2.6 | 0.12 | 0.40 | 0.40 | 97 | 1007.9 |
| 20260506143422 | 44 | 348 | 1.7 | 2.6 | 0.05 | 0.39 | 0.39 | 97 | 1007.7 |
| 20260506142920 | 44 | 0 | 1.7 | 2.6 | 0.07 | 0.38 | 0.38 | 97 | 1007.9 |
| 20260506142418 | 44 | 3 | 1.7 | 1.7 | 0.07 | 0.38 | 0.38 | 96 | 1007.9 |
| 20260506141916 | 44 | 319 | 1.7 | 2.6 | 0.05 | 0.37 | 0.37 | 96 | 1008.0 |
| 20260506141413 | 44 | 25 | 1.7 | 1.7 | 0.05 | 0.37 | 0.37 | 96 | 1008.1 |
| 20260506140911 | 44 | 3 | 0.9 | 1.7 | 0.07 | 0.36 | 0.36 | 96 | 1008.2 |
| 20260506140408 | 43 | 343 | 1.7 | 1.7 | 0.12 | 0.36 | 0.36 | 96 | 1008.1 |
| 20260506135905 | 43 | 327 | 2.6 | 2.6 | 0.05 | 0.35 | 0.35 | 96 | 1008.0 |
| 20260506135402 | 44 | 352 | 1.7 | 1.7 | 0.07 | 0.34 | 0.34 | 96 | 1007.9 |
| 20260506134858 | 44 | 322 | 4.3 | 5.2 | 0.07 | 0.34 | 0.34 | 96 | 1007.9 |
| 20260506134354 | 44 | 351 | 0.0 | 0.9 | 0.00 | 0.33 | 0.33 | 97 | 1007.6 |
| 20260506133851 | 44 | 339 | 0.0 | 0.9 | 0.00 | 0.33 | 0.33 | 97 | 1008.1 |
| 20260506133348 | 44 | 350 | 1.7 | 2.6 | 0.00 | 0.33 | 0.33 | 97 | 1007.8 |
| 20260506132844 | 44 | 311 | 1.7 | 1.7 | 0.00 | 0.33 | 0.33 | 97 | 1007.9 |
| 20260506132342 | 44 | 313 | 0.9 | 1.7 | 0.00 | 0.33 | 0.33 | 97 | 1008.0 |
| 20260506131840 | 44 | 353 | 2.6 | 2.6 | 0.00 | 0.33 | 0.33 | 96 | 1008.2 |
| 20260506131336 | 44 | 352 | 4.3 | 6.1 | 0.00 | 0.33 | 0.33 | 96 | 1008.4 |
| 20260506130834 | 44 | 296 | 2.6 | 4.3 | 0.07 | 0.33 | 0.33 | 96 | 1008.3 |
| 20260506130330 | 43 | 315 | 0.9 | 0.9 | 0.07 | 0.33 | 0.33 | 96 | 1008.4 |
| 20260506125828 | 44 | 320 | 2.6 | 4.3 | 0.00 | 0.32 | 0.32 | 96 | 1008.5 |
| 20260506125326 | 44 | 335 | 2.6 | 4.3 | 0.05 | 0.32 | 0.32 | 96 | 1008.4 |
| 20260506124824 | 44 | 346 | 2.6 | 2.6 | 0.05 | 0.32 | 0.32 | 96 | 1008.5 |
| 20260506124320 | 44 | 324 | 2.6 | 4.3 | 0.07 | 0.31 | 0.31 | 96 | 1008.4 |
| 20260506123818 | 44 | 312 | 3.5 | 6.1 | 0.12 | 0.31 | 0.31 | 96 | 1008.5 |
| 20260506123317 | 44 | 356 | 2.6 | 2.6 | 0.05 | 0.30 | 0.30 | 96 | 1008.5 |
| 20260506122813 | 44 | 323 | 0.9 | 1.7 | 0.07 | 0.29 | 0.29 | 96 | 1008.2 |
| 20260506122310 | 44 | 298 | 1.7 | 2.6 | 0.12 | 0.29 | 0.29 | 96 | 1008.4 |
| 20260506121808 | 45 | 352 | 3.5 | 4.3 | 0.12 | 0.28 | 0.28 | 97 | 1008.4 |
| 20260506121305 | 46 | 329 | 0.9 | 0.9 | 0.12 | 0.27 | 0.27 | 97 | 1008.7 |
| 20260506120802 | 46 | 18 | 2.6 | 2.6 | 0.05 | 0.26 | 0.26 | 97 | 1009.0 |
| 20260506120300 | 46 | 347 | 0.9 | 1.7 | 0.07 | 0.25 | 0.25 | 97 | 1008.8 |
| 20260506115757 | 46 | 306 | 1.7 | 1.7 | 0.12 | 0.25 | 0.25 | 97 | 1008.9 |
| 20260506115255 | 46 | 337 | 0.0 | 0.9 | 0.05 | 0.24 | 0.24 | 97 | 1008.8 |
| 20260506114753 | 46 | 12 | 0.9 | 0.9 | 0.07 | 0.23 | 0.23 | 97 | 1008.9 |
| 20260506114251 | 45 | 326 | 0.9 | 0.9 | 0.07 | 0.23 | 0.23 | 97 | 1009.0 |
| 20260506113749 | 45 | 315 | 0.9 | 0.9 | 0.05 | 0.22 | 0.22 | 97 | 1008.9 |
| 20260506113246 | 46 | 326 | 0.0 | 0.0 | 0.12 | 0.22 | 0.22 | 97 | 1009.1 |
| 20260506112742 | 46 | 337 | 0.9 | 1.7 | 0.14 | 0.21 | 0.21 | 97 | 1009.0 |
| 20260506112240 | 46 | 313 | 0.0 | 0.0 | 0.12 | 0.20 | 0.20 | 97 | 1009.0 |
| 20260506111737 | 46 | 308 | 0.9 | 1.7 | 0.05 | 0.19 | 0.19 | 97 | 1008.6 |
| 20260506111235 | 46 | 303 | 0.9 | 0.9 | 0.00 | 0.18 | 0.18 | 97 | 1008.3 |
| 20260506110732 | 46 | 304 | 0.9 | 0.9 | 0.00 | 0.18 | 0.18 | 97 | 1008.1 |
| 20260506110230 | 46 | 356 | 0.9 | 1.7 | 0.00 | 0.18 | 0.18 | 97 | 1008.2 |
| 20260506105726 | 46 | 14 | 1.7 | 1.7 | 0.00 | 0.18 | 0.18 | 97 | 1008.2 |
| 20260506105223 | 46 | 14 | 2.6 | 2.6 | 0.00 | 0.18 | 0.18 | 97 | 1008.2 |
| 20260506104721 | 47 | 9 | 0.9 | 1.7 | 0.00 | 0.18 | 0.18 | 97 | 1008.1 |
| 20260506104218 | 47 | 4 | 0.9 | 1.7 | 0.00 | 0.18 | 0.18 | 96 | 1008.1 |
| 20260506103715 | 47 | 332 | 0.9 | 0.9 | 0.00 | 0.18 | 0.18 | 96 | 1008.4 |
| 20260506103212 | 47 | 319 | 0.9 | 1.7 | 0.00 | 0.18 | 0.18 | 96 | 1008.1 |
| 20260506102710 | 47 | 322 | 0.9 | 0.9 | 0.00 | 0.18 | 0.18 | 97 | 1008.3 |
| 20260506102208 | 47 | 333 | 1.7 | 1.7 | 0.00 | 0.18 | 0.18 | 97 | 1008.2 |
| 20260506101704 | 47 | 1 | 0.9 | 1.7 | 0.00 | 0.18 | 0.18 | 97 | 1008.2 |
| 20260506101201 | 47 | 343 | 0.9 | 0.9 | 0.07 | 0.18 | 0.18 | 97 | 1008.4 |
| 20260506100659 | 47 | 315 | 0.9 | 0.9 | 0.07 | 0.18 | 0.18 | 97 | 1008.4 |
| 20260506100157 | 47 | 321 | 0.9 | 0.9 | 0.00 | 0.17 | 0.17 | 96 | 1008.2 |
| 20260506095655 | 47 | 318 | 0.9 | 0.9 | 0.05 | 0.17 | 0.17 | 96 | 1008.5 |
| 20260506095152 | 47 | 313 | 1.7 | 1.7 | 0.12 | 0.17 | 0.17 | 96 | 1007.9 |
| 20260506094649 | 48 | 48 | 1.7 | 1.7 | 0.12 | 0.16 | 0.16 | 96 | 1008.1 |
| 20260506094147 | 48 | 302 | 0.0 | 0.0 | 0.05 | 0.15 | 0.15 | 96 | 1008.7 |
| 20260506093645 | 48 | 338 | 0.9 | 0.9 | 0.00 | 0.14 | 0.14 | 95 | 1008.2 |
| 20260506093142 | 48 | 320 | 0.9 | 0.9 | 0.07 | 0.14 | 0.14 | 95 | 1008.5 |
| 20260506092640 | 48 | 327 | 0.0 | 0.0 | 0.07 | 0.14 | 0.14 | 94 | 1008.4 |
| 20260506092137 | 48 | 8 | 0.9 | 0.9 | 0.00 | 0.13 | 0.13 | 94 | 1008.3 |
| 20260506091635 | 48 | 337 | 0.9 | 1.7 | 0.00 | 0.13 | 0.13 | 95 | 1008.7 |
| 20260506091132 | 48 | 7 | 0.0 | 0.9 | 0.05 | 0.13 | 0.13 | 95 | 1008.4 |
| 20260506090630 | 49 | 317 | 0.0 | 0.0 | 0.05 | 0.13 | 0.13 | 94 | 1008.8 |
| 20260506090126 | 49 | 313 | 0.9 | 0.9 | 0.00 | 0.12 | 0.12 | 94 | 1008.8 |
| 20260506085623 | 49 | 344 | 0.0 | 0.0 | 0.00 | 0.12 | 0.12 | 93 | 1008.4 |
| 20260506085119 | 48 | 319 | 0.0 | 0.9 | 0.00 | 0.12 | 0.12 | 94 | 1008.9 |
| 20260506084616 | 49 | 21 | 2.6 | 4.3 | 0.00 | 0.12 | 0.12 | 95 | 1008.2 |
| 20260506084112 | 49 | 350 | 1.7 | 1.7 | 0.00 | 0.12 | 0.12 | 96 | 1008.5 |
| 20260506083610 | 49 | 10 | 0.9 | 0.9 | 0.00 | 0.12 | 0.12 | 96 | 1008.5 |
| 20260506083107 | 50 | 11 | 1.7 | 1.7 | 0.07 | 0.12 | 0.12 | 96 | 1008.4 |
| 20260506082603 | 50 | 39 | 0.9 | 0.9 | 0.07 | 0.12 | 0.12 | 95 | 1008.4 |
| 20260506082059 | 50 | 344 | 0.0 | 0.9 | 0.00 | 0.11 | 0.11 | 95 | 1008.5 |
| 20260506081558 | 50 | 342 | 0.0 | 0.9 | 0.00 | 0.11 | 0.11 | 95 | 1008.7 |
| 20260506081055 | 49 | 345 | 0.9 | 0.9 | 0.00 | 0.11 | 0.11 | 94 | 1008.5 |
| 20260506080552 | 49 | 338 | 0.0 | 0.9 | 0.05 | 0.11 | 0.11 | 94 | 1008.6 |
| 20260506073033 | 51 | 31 | 1.7 | 1.7 | 0.00 | 0.08 | 0.08 | 96 | 1008.2 |
| 20260506072530 | 51 | 352 | 0.9 | 0.9 | 0.00 | 0.08 | 0.08 | 96 | 1008.6 |
| 20260506072028 | 51 | 351 | 0.9 | 0.9 | 0.00 | 0.08 | 0.08 | 96 | 1008.6 |
| 20260506071525 | 51 | 327 | 0.0 | 0.0 | 0.07 | 0.08 | 0.08 | 96 | 1008.5 |
| 20260506071022 | 51 | 336 | 0.0 | 0.0 | 0.07 | 0.08 | 0.08 | 96 | 1008.4 |
| 20260506070520 | 51 | 37 | 1.7 | 1.7 | 0.00 | 0.07 | 0.07 | 96 | 1008.0 |
| 20260506062457 | 51 | 12 | 2.6 | 4.3 | 0.00 | 0.06 | 0.06 | 97 | 1008.0 |
| 20260506061953 | 51 | 31 | 2.6 | 2.6 | 0.00 | 0.06 | 0.06 | 97 | 1008.1 |
| 20260506061449 | 52 | 37 | 2.6 | 2.6 | 0.00 | 0.06 | 0.06 | 98 | 1008.1 |
| 20260506060947 | 52 | 36 | 2.6 | 2.6 | 0.05 | 0.06 | 0.06 | 98 | 1008.5 |
| 20260506060446 | 52 | 86 | 0.9 | 0.9 | 0.05 | 0.06 | 0.06 | 98 | 1008.5 |
| 20260506050914 | 52 | 23 | 2.6 | 2.6 | 0.00 | 0.04 | 0.04 | 98 | 1008.5 |
| 20260506050412 | 52 | 320 | 0.9 | 1.7 | 0.05 | 0.04 | 0.04 | 98 | 1008.4 |
| 20260506044902 | 52 | 312 | 0.9 | 0.9 | 0.00 | 0.03 | 0.03 | 98 | 1008.4 |
| 20260506044400 | 52 | 324 | 0.0 | 0.0 | 0.00 | 0.03 | 0.03 | 98 | 1007.9 |
| 20260506043857 | 52 | 319 | 0.0 | 0.9 | 0.07 | 0.03 | 0.03 | 98 | 1007.8 |
| 20260506043354 | 52 | 339 | 0.0 | 0.9 | 0.07 | 0.03 | 0.03 | 98 | 1007.7 |
| 20260506042852 | 52 | 326 | 0.0 | 0.0 | 0.00 | 0.02 | 0.02 | 98 | 1007.8 |
| 20260506042351 | 52 | 335 | 0.0 | 0.0 | 0.00 | 0.02 | 0.02 | 97 | 1007.5 |
| 20260506041849 | 52 | 45 | 2.6 | 2.6 | 0.05 | 0.02 | 0.02 | 97 | 1007.4 |
| 20260506041346 | 52 | 115 | 1.7 | 1.7 | 0.05 | 0.02 | 0.02 | 97 | 1007.8 |
| 20260506040843 | 52 | 26 | 0.9 | 0.9 | 0.07 | 0.01 | 0.01 | 97 | 1008.2 |
| 20260506040341 | 52 | 333 | 0.0 | 0.0 | 0.07 | 0.01 | 0.01 | 97 | 1008.2 |
| 20260506035837 | 52 | 330 | 0.0 | 0.0 | 0.00 | 0.29 | 0.29 | 97 | 1008.1 |
| 20260506035334 | 52 | 339 | 0.0 | 0.0 | 0.05 | 0.29 | 0.29 | 97 | 1007.8 |
| 20260506034831 | 53 | 325 | 0.0 | 0.0 | 0.05 | 0.29 | 0.29 | 97 | 1007.8 |
| 20260506034328 | 53 | 342 | 0.9 | 0.9 | 0.00 | 0.28 | 0.28 | 97 | 1007.8 |
| 20260506033825 | 53 | 273 | 0.9 | 0.9 | 0.00 | 0.28 | 0.28 | 96 | 1007.8 |
| 20260506033322 | 53 | 242 | 0.9 | 0.9 | 0.00 | 0.28 | 0.28 | 95 | 1007.5 |
| 20260506032819 | 53 | 24 | 0.9 | 0.9 | 0.00 | 0.28 | 0.28 | 94 | 1007.5 |
| 20260506032316 | 54 | 338 | 0.0 | 0.0 | 0.07 | 0.28 | 0.28 | 92 | 1007.5 |
| 20260506031813 | 54 | 342 | 0.0 | 0.9 | 0.12 | 0.28 | 0.28 | 89 | 1007.4 |
| 20260506031310 | 55 | 307 | 0.0 | 0.0 | 0.05 | 0.27 | 0.27 | 87 | 1007.5 |
| 20260506030808 | 56 | 306 | 0.9 | 0.9 | 0.14 | 0.26 | 0.26 | 84 | 1007.3 |
| 20260506030306 | 57 | 296 | 0.9 | 0.9 | 0.07 | 0.25 | 0.25 | 79 | 1007.1 |
| 20260506025802 | 58 | 305 | 1.7 | 1.7 | 0.00 | 0.24 | 0.24 | 76 | 1007.4 |
| 20260506025259 | 58 | 289 | 3.5 | 4.3 | 0.00 | 0.24 | 0.24 | 75 | 1006.9 |
| 20260506024756 | 58 | 284 | 2.6 | 4.3 | 0.00 | 0.24 | 0.24 | 74 | 1006.9 |
| 20260506024252 | 59 | 306 | 1.7 | 1.7 | 0.00 | 0.24 | 0.24 | 74 | 1006.8 |
| 20260506023748 | 59 | 306 | 2.6 | 2.6 | 0.00 | 0.24 | 0.24 | 75 | 1006.7 |
| 20260506023246 | 59 | 299 | 3.5 | 6.1 | 0.00 | 0.24 | 0.24 | 74 | 1006.6 |
| 20260506022742 | 59 | 278 | 2.6 | 2.6 | 0.00 | 0.24 | 0.24 | 75 | 1006.7 |
| 20260506022240 | 59 | 300 | 4.3 | 6.1 | 0.00 | 0.24 | 0.24 | 76 | 1006.5 |
| 20260506021738 | 59 | 298 | 1.7 | 1.7 | 0.00 | 0.24 | 0.24 | 78 | 1006.7 |
| 20260506021235 | 59 | 313 | 1.7 | 1.7 | 0.00 | 0.24 | 0.24 | 78 | 1006.7 |
| 20260506020731 | 59 | 312 | 0.9 | 0.9 | 0.05 | 0.24 | 0.24 | 81 | 1006.4 |
| 20260506020229 | 60 | 334 | 4.3 | 6.1 | 0.05 | 0.24 | 0.24 | 78 | 1006.7 |
| 20260506015727 | 60 | 302 | 3.5 | 4.3 | 0.00 | 0.23 | 0.23 | 81 | 1006.5 |
| 20260506015224 | 58 | 327 | 6.1 | 9.6 | 0.00 | 0.23 | 0.23 | 91 | 1006.5 |
| 20260506014721 | 59 | 322 | 1.7 | 1.7 | 0.00 | 0.23 | 0.23 | 96 | 1006.6 |
| 20260506014217 | 59 | 346 | 1.7 | 1.7 | 0.00 | 0.23 | 0.23 | 95 | 1006.3 |
| 20260506013715 | 59 | 309 | 0.0 | 0.9 | 0.00 | 0.23 | 0.23 | 95 | 1006.0 |
| 20260506013212 | 59 | 311 | 0.0 | 0.0 | 0.00 | 0.23 | 0.23 | 95 | 1005.8 |
| 20260506012708 | 59 | 313 | 0.9 | 0.9 | 0.00 | 0.23 | 0.23 | 94 | 1005.6 |
| 20260506012205 | 60 | 319 | 0.0 | 0.0 | 0.00 | 0.23 | 0.23 | 93 | 1005.5 |
| 20260506011702 | 60 | 317 | 0.9 | 0.9 | 0.00 | 0.23 | 0.23 | 92 | 1005.5 |
| 20260506011158 | 60 | 322 | 0.0 | 0.0 | 0.00 | 0.23 | 0.23 | 90 | 1005.3 |
| 20260506010657 | 60 | 277 | 0.0 | 0.9 | 0.00 | 0.23 | 0.23 | 90 | 1005.1 |
| 20260506010154 | 60 | 322 | 0.0 | 0.0 | 0.00 | 0.23 | 0.23 | 90 | 1005.0 |
| 20260506005651 | 60 | 296 | 0.9 | 0.9 | 0.00 | 0.23 | 0.23 | 90 | 1004.9 |
| 20260506005147 | 60 | 308 | 0.9 | 0.9 | 0.00 | 0.23 | 0.23 | 91 | 1004.9 |
| 20260506004643 | 60 | 297 | 0.9 | 0.9 | 0.00 | 0.23 | 0.23 | 92 | 1005.0 |
| 20260506004141 | 60 | 301 | 0.0 | 0.0 | 0.00 | 0.23 | 0.23 | 93 | 1005.0 |
| 20260506003637 | 59 | 209 | 1.7 | 1.7 | 0.00 | 0.23 | 0.23 | 95 | 1005.0 |
| 20260506003134 | 60 | 315 | 0.0 | 0.0 | 0.00 | 0.23 | 0.23 | 95 | 1004.8 |
| 20260506002630 | 59 | 305 | 0.0 | 0.0 | 0.00 | 0.23 | 0.23 | 95 | 1004.6 |
| 20260506002126 | 59 | 317 | 0.0 | 0.0 | 0.00 | 0.23 | 0.23 | 95 | 1004.3 |
| 20260506001621 | 60 | 333 | 0.0 | 0.0 | 0.00 | 0.23 | 0.23 | 95 | 1004.1 |
| 20260506001119 | 60 | 319 | 0.0 | 0.0 | 0.00 | 0.23 | 0.23 | 94 | 1004.3 |
| 20260506000616 | 60 | 317 | 0.0 | 0.0 | 0.00 | 0.23 | 0.23 | 94 | 1004.4 |
| 20260506000113 | 60 | 325 | 0.0 | 0.0 | 0.00 | 0.23 | 0.23 | 93 | 1004.4 |
| 20260505235612 | 60 | 325 | 0.0 | 0.0 | 0.00 | 0.23 | 0.23 | 93 | 1004.3 |
| 20260505235108 | 60 | 325 | 0.0 | 0.0 | 0.00 | 0.23 | 0.23 | 93 | 1004.4 |
| 20260505234605 | 61 | 313 | 0.0 | 0.0 | 0.00 | 0.23 | 0.23 | 92 | 1004.3 |
| 20260505234102 | 61 | 86 | 0.9 | 0.9 | 0.00 | 0.23 | 0.23 | 92 | 1004.5 |
| 20260505233600 | 61 | 128 | 0.9 | 1.7 | 0.00 | 0.23 | 0.23 | 92 | 1004.2 |
| 20260505233057 | 62 | 28 | 0.9 | 0.9 | 0.00 | 0.23 | 0.23 | 91 | 1004.3 |
| 20260505232555 | 62 | 6 | 0.9 | 0.9 | 0.00 | 0.23 | 0.23 | 90 | 1004.2 |
| 20260505232052 | 62 | 310 | 0.9 | 0.9 | 0.00 | 0.23 | 0.23 | 90 | 1004.2 |
| 20260505231548 | 62 | 312 | 0.0 | 0.0 | 0.00 | 0.23 | 0.23 | 90 | 1004.2 |
| 20260505231047 | 62 | 313 | 0.0 | 0.0 | 0.00 | 0.23 | 0.23 | 89 | 1004.0 |
| 20260505230544 | 62 | 313 | 0.9 | 0.9 | 0.00 | 0.23 | 0.23 | 89 | 1003.7 |
| 20260505230041 | 63 | 259 | 0.9 | 0.9 | 0.00 | 0.23 | 0.23 | 89 | 1003.7 |
| 20260505225538 | 63 | 69 | 0.0 | 0.9 | 0.00 | 0.23 | 0.23 | 88 | 1003.7 |
| 20260505225034 | 63 | 226 | 0.9 | 0.9 | 0.00 | 0.23 | 0.23 | 87 | 1003.8 |
| 20260505224531 | 64 | 297 | 0.9 | 0.9 | 0.00 | 0.23 | 0.23 | 88 | 1003.7 |
| 20260505224028 | 64 | 306 | 0.0 | 0.0 | 0.00 | 0.23 | 0.23 | 88 | 1003.9 |
| 20260505223525 | 63 | 313 | 0.0 | 0.9 | 0.00 | 0.23 | 0.23 | 89 | 1003.8 |
| 20260505223021 | 63 | 289 | 0.9 | 0.9 | 0.00 | 0.23 | 0.23 | 90 | 1003.8 |
| 20260505222518 | 63 | 109 | 2.6 | 2.6 | 0.00 | 0.23 | 0.23 | 91 | 1003.8 |
| 20260505222013 | 63 | 312 | 0.0 | 0.0 | 0.00 | 0.23 | 0.23 | 89 | 1004.0 |
| 20260505221511 | 63 | 307 | 0.0 | 0.0 | 0.00 | 0.23 | 0.23 | 89 | 1003.9 |
| 20260505221008 | 63 | 268 | 0.0 | 0.9 | 0.00 | 0.23 | 0.23 | 89 | 1003.6 |
| 20260505220505 | 63 | 162 | 1.7 | 1.7 | 0.00 | 0.23 | 0.23 | 88 | 1003.8 |
| 20260505220002 | 63 | 308 | 0.9 | 0.9 | 0.00 | 0.23 | 0.23 | 88 | 1003.8 |
| 20260505215500 | 63 | 310 | 0.0 | 0.0 | 0.00 | 0.23 | 0.23 | 87 | 1003.7 |
| 20260505214958 | 63 | 313 | 0.0 | 0.0 | 0.00 | 0.23 | 0.23 | 88 | 1003.8 |
| 20260505214456 | 63 | 289 | 0.9 | 1.7 | 0.00 | 0.23 | 0.23 | 86 | 1003.9 |
| 20260505213952 | 63 | 315 | 0.0 | 0.0 | 0.00 | 0.23 | 0.23 | 88 | 1003.6 |
| 20260505213450 | 63 | 332 | 0.9 | 1.7 | 0.00 | 0.23 | 0.23 | 89 | 1003.5 |
| 20260505212946 | 62 | 294 | 0.0 | 0.9 | 0.00 | 0.23 | 0.23 | 89 | 1003.3 |
| 20260505212443 | 61 | 336 | 0.9 | 0.9 | 0.00 | 0.23 | 0.23 | 90 | 1003.6 |
| 20260505211939 | 61 | 135 | 0.9 | 1.7 | 0.00 | 0.23 | 0.23 | 91 | 1003.5 |
| 20260505211437 | 62 | 71 | 1.7 | 1.7 | 0.00 | 0.23 | 0.23 | 91 | 1003.5 |
| 20260505210933 | 62 | 291 | 0.9 | 1.7 | 0.00 | 0.23 | 0.23 | 91 | 1003.2 |
| 20260505210431 | 62 | 130 | 1.7 | 1.7 | 0.00 | 0.23 | 0.23 | 90 | 1003.2 |
| 20260505205927 | 63 | 295 | 0.9 | 1.7 | 0.00 | 0.23 | 0.23 | 90 | 1003.0 |
| 20260505205426 | 63 | 359 | 0.9 | 0.9 | 0.00 | 0.23 | 0.23 | 89 | 1002.9 |
| 20260505204922 | 63 | 290 | 0.0 | 0.9 | 0.00 | 0.23 | 0.23 | 86 | 1002.7 |
| 20260505204420 | 63 | 170 | 1.7 | 1.7 | 0.00 | 0.23 | 0.23 | 88 | 1002.5 |
| 20260505203917 | 63 | 172 | 2.6 | 2.6 | 0.00 | 0.23 | 0.23 | 89 | 1002.6 |
| 20260505203413 | 63 | 262 | 0.9 | 0.9 | 0.00 | 0.23 | 0.23 | 90 | 1002.7 |
| 20260505202910 | 62 | 306 | 0.9 | 1.7 | 0.00 | 0.23 | 0.23 | 90 | 1002.7 |
| 20260505202406 | 61 | 214 | 0.9 | 0.9 | 0.07 | 0.23 | 0.23 | 90 | 1002.9 |